Abilene Dyess, TX

11:52 AM CST on December 12, 2019 (GMT -0600)
Dyess Air Force Base

Weather History for KDYS - November, 2019

Change the Weather History Date:

Monday, November 11, 2019

  Actual Average Record
Temperature  
Mean Temperature 44 °F -  
Max Temperature 61 °F 64 °F 79 °F (2010)
Min Temperature 27 °F 46 °F 27 °F (2019)
Degree Days  
Heating Degree Days 21    
Moisture  
Dew Point 30 °F    
Average Humidity 70    
Maximum Humidity 81    
Minimum Humidity 46    
Precipitation  
Precipitation 0.00 in - - ()
Sea Level Pressure  
Sea Level Pressure 30.25 in    
Wind  
Wind Speed 22 mph (NNW)    
Max Wind Speed 34 mph    
Max Gust Speed 47 mph    
Visibility 10 miles    
Events Rain , Snow    
Averages and records for this station are not official NWS values.
T = Trace of Precipitation, MM = Missing Value Source: NWS Daily Summary

Daily Weather History Graph

Daily Weather History Graph

Search for Another Location

Airport or City:

Astronomy

Nov. 11, 2019 Rise Set
Actual Time 7:05 AM CST 5:41 PM CST
Civil Twilight 6:39 AM CST 6:07 PM CST
Nautical Twilight 6:09 AM CST 6:36 PM CST
Astronomical Twilight 5:40 AM CST 7:05 PM CST
Moon 5:32 PM CST (11/11) 6:04 AM CST (11/11)
Length of Visible Light 11h 27m
Length of Day
10h 36m
Waxing Gibbous, 99% of the Moon is Illuminated
Nov 11
Waxing Gibbous
Nov 12
Full
Nov 19
Last Quarter
Nov 26
New
Dec 4
First Quarter

Hourly Weather History & Observations

Time (CST) Temp. Windchill Dew Point Humidity Pressure Visibility Wind Dir Wind Speed Gust Speed Precip Events Conditions
12:56 AM 61.0 °F - 52.7 °F 74% 29.77 in 10.0 mi South 18.4 mph 24.2 mph N/A   Clear
1:56 AM 60.6 °F - 52.7 °F 75% 29.76 in 10.0 mi South 18.4 mph 25.3 mph N/A   Clear
2:56 AM 60.8 °F - 52.9 °F 75% 29.75 in 10.0 mi South 17.3 mph 26.5 mph N/A   Mostly Cloudy
3:56 AM 60.3 °F - 53.1 °F 77% 29.76 in 10.0 mi South 6.9 mph - N/A   Scattered Clouds
4:56 AM 61.3 °F - 53.4 °F 75% 29.77 in 10.0 mi South 10.4 mph - N/A   Mostly Cloudy
5:56 AM 61.0 °F - 53.4 °F 76% 29.84 in 10.0 mi WNW 8.1 mph - N/A   Scattered Clouds
6:56 AM 58.1 °F - 46.8 °F 66% 29.93 in 10.0 mi NNW 24.2 mph 31.1 mph N/A   Mostly Cloudy
7:11 AM 57.2 °F - 46.4 °F 67% 29.94 in 10.0 mi NNW 21.9 mph 32.2 mph N/A   Overcast
7:26 AM 55.4 °F - 48.2 °F 77% 29.96 in 10.0 mi NNW 25.3 mph 39.1 mph N/A   Overcast
7:41 AM 50.0 °F - 42.8 °F 76% 30.01 in 10.0 mi North 33.4 mph 41.4 mph N/A   Overcast
7:56 AM 47.3 °F - 39.7 °F 75% 30.03 in 10.0 mi North 33.4 mph 42.6 mph N/A   Overcast
8:07 AM 46.4 °F 37.5 °F 39.2 °F 76% 30.06 in 10.0 mi North 27.6 mph 40.3 mph N/A Rain Light Rain
8:16 AM 44.6 °F 34.6 °F 37.4 °F 76% 30.07 in 10.0 mi North 31.1 mph 41.4 mph N/A Rain Light Rain
8:17 AM 44.6 °F 34.7 °F 37.4 °F 76% 30.08 in 10.0 mi North 29.9 mph 41.4 mph N/A   Overcast
8:36 AM 42.8 °F 31.8 °F 37.4 °F 81% 30.11 in 10.0 mi NNW 33.4 mph 43.7 mph N/A Rain Light Rain
8:51 AM 41.0 °F 30.2 °F 35.6 °F 81% 30.15 in 10.0 mi NNW 27.6 mph 47.2 mph N/A Rain Light Rain
8:56 AM 40.8 °F 29.4 °F 34.5 °F 78% 30.15 in 10.0 mi NNW 31.1 mph 41.4 mph N/A Rain Light Rain
9:08 AM 39.2 °F 27.2 °F 33.8 °F 81% 30.17 in 10.0 mi NNW 31.1 mph 42.6 mph N/A   Overcast
9:23 AM 39.2 °F 27.8 °F 30.2 °F 70% 30.19 in 10.0 mi North 27.6 mph 42.6 mph N/A   Overcast
9:42 AM 39.2 °F 28.3 °F 32.0 °F 75% 30.22 in 10.0 mi North 25.3 mph 36.8 mph N/A Rain Light Rain
9:56 AM 37.9 °F 25.9 °F 31.5 °F 77% 30.22 in 10.0 mi NNW 28.8 mph 35.7 mph N/A Rain Light Rain
10:21 AM - - - N/A% 30.30 in 10.0 mi North 27.6 mph 35.7 mph N/A   Unknown
10:51 AM 35.6 °F 23.0 °F 28.4 °F 75% 30.30 in 10.0 mi North 27.6 mph 36.8 mph N/A Rain Light Rain
10:52 AM 35.6 °F 23.0 °F 28.4 °F 75% 30.30 in 10.0 mi North 27.6 mph 36.8 mph N/A   Overcast
10:56 AM 35.2 °F 23.0 °F 27.9 °F 74% 30.30 in 10.0 mi NNW 25.3 mph 36.8 mph N/A   Overcast
11:21 AM 33.8 °F 20.5 °F 24.8 °F 70% 30.32 in 10.0 mi North 27.6 mph 39.1 mph N/A   Squalls
11:56 AM 33.1 °F 18.2 °F 23.7 °F 68% 30.34 in 10.0 mi NNW 34.5 mph 43.7 mph N/A   Overcast
12:15 PM 32.0 °F 19.2 °F 24.8 °F 75% 30.35 in 10.0 mi North 23.0 mph 34.5 mph N/A Rain Light Rain
12:27 PM 32.0 °F 17.6 °F 23.0 °F 69% 30.35 in 10.0 mi North 29.9 mph 39.1 mph N/A   Overcast
12:41 PM 32.0 °F 17.4 °F 23.0 °F 69% 30.35 in 10.0 mi NNW 31.1 mph 41.4 mph N/A   Overcast
12:56 PM 31.3 °F 16.9 °F 23.0 °F 71% 30.36 in 10.0 mi North 28.8 mph 36.8 mph N/A   Overcast
1:41 PM 30.2 °F 17.4 °F 24.8 °F 80% 30.37 in 9.0 mi NNW 20.7 mph 29.9 mph N/A Snow Light Snow
1:56 PM 30.2 °F 17.1 °F 23.9 °F 77% 30.38 in 10.0 mi North 21.9 mph 28.8 mph N/A   Overcast
1:59 PM 30.2 °F 17.8 °F 24.8 °F 80% 30.37 in 10.0 mi North 19.6 mph 28.8 mph N/A   Overcast
2:05 PM 30.2 °F 18.1 °F 23.0 °F 75% 30.38 in 10.0 mi North 18.4 mph 26.5 mph N/A   Overcast
2:23 PM 30.2 °F 18.1 °F 23.0 °F 75% 30.39 in 10.0 mi North 18.4 mph 25.3 mph N/A   Overcast
2:53 PM 30.2 °F 18.9 °F 23.0 °F 75% 30.40 in 10.0 mi NNW 16.1 mph - N/A Snow Light Snow
2:56 PM 29.7 °F 17.4 °F 22.6 °F 75% 30.40 in 10.0 mi NNW 18.4 mph - N/A Snow Light Snow
3:25 PM 28.4 °F 15.8 °F 21.2 °F 74% 30.42 in 10.0 mi North 18.4 mph - N/A   Overcast
3:55 PM 30.2 °F 18.5 °F 21.2 °F 69% 30.43 in 10.0 mi NNW 17.3 mph - N/A   Overcast
4:26 PM 30.2 °F 17.4 °F 19.4 °F 64% 30.45 in 10.0 mi North 20.7 mph 26.5 mph N/A   Overcast
4:41 PM 30.2 °F 17.8 °F 17.6 °F 60% 30.45 in 10.0 mi North 19.6 mph 26.5 mph N/A   Overcast
4:56 PM 29.7 °F 16.1 °F 16.7 °F 59% 30.46 in 10.0 mi North 23.0 mph 28.8 mph N/A   Overcast
5:11 PM 30.2 °F 18.5 °F 17.6 °F 60% 30.47 in 10.0 mi North 17.3 mph 25.3 mph N/A   Overcast
5:56 PM 30.2 °F 15.4 °F 16.0 °F 56% 30.48 in 10.0 mi North 28.8 mph 31.1 mph N/A   Overcast
6:56 PM 30.0 °F 16.0 °F 14.9 °F 53% 30.53 in 10.0 mi North 25.3 mph 29.9 mph N/A   Overcast
7:56 PM 29.7 °F 17.1 °F 14.2 °F 53% 30.58 in 10.0 mi North 19.6 mph 27.6 mph N/A   Scattered Clouds
8:56 PM 29.5 °F 15.8 °F 13.1 °F 51% 30.61 in 10.0 mi North 23.0 mph 28.8 mph N/A   Clear
9:56 PM 28.9 °F 14.8 °F 10.2 °F 46% 30.64 in 10.0 mi North 24.2 mph 32.2 mph N/A   Partly Cloudy
10:56 PM 27.9 °F 14.7 °F 11.1 °F 50% 30.66 in 10.0 mi North 19.6 mph 25.3 mph N/A   Mostly Cloudy
11:56 PM 27.0 °F 12.8 °F 10.4 °F 50% 30.67 in 10.0 mi North 21.9 mph - N/A   Clear